Year,Month,Day,Hour,Minute,Value (Times are PST for temperature in C)
2013,08,21,00,00,14.00
2013,08,21,00,01,13.90
2013,08,21,00,02,13.90
2013,08,21,00,03,13.80
2013,08,21,00,04,13.80
2013,08,21,00,05,13.80
2013,08,21,00,06,13.80
2013,08,21,00,07,13.70
2013,08,21,00,08,13.70
2013,08,21,00,09,13.70
2013,08,21,00,10,13.70
2013,08,21,00,11,13.60
2013,08,21,00,12,13.60
2013,08,21,00,13,13.60
2013,08,21,00,14,13.60
2013,08,21,00,15,13.50
2013,08,21,00,16,13.50
2013,08,21,00,17,13.50
2013,08,21,00,18,13.40
2013,08,21,00,19,13.40
2013,08,21,00,20,13.40
2013,08,21,00,21,13.30
2013,08,21,00,22,13.30
2013,08,21,00,23,13.30
2013,08,21,00,24,13.20
2013,08,21,00,25,13.20
2013,08,21,00,26,13.20
2013,08,21,00,27,13.20
2013,08,21,00,28,13.20
2013,08,21,00,29,13.20
2013,08,21,00,30,13.20
2013,08,21,00,31,13.20
2013,08,21,00,32,13.20
2013,08,21,00,33,13.20
2013,08,21,00,34,13.20
2013,08,21,00,35,13.20
2013,08,21,00,36,13.20
2013,08,21,00,37,13.20
2013,08,21,00,38,13.20
2013,08,21,00,39,13.20
2013,08,21,00,40,13.20
2013,08,21,00,41,13.20
2013,08,21,00,42,13.10
2013,08,21,00,43,13.10
2013,08,21,00,44,13.10
2013,08,21,00,45,13.10
2013,08,21,00,46,13.10
2013,08,21,00,47,13.10
2013,08,21,00,48,13.00
2013,08,21,00,49,13.00
2013,08,21,00,50,13.00
2013,08,21,00,51,13.00
2013,08,21,00,52,12.90
2013,08,21,00,53,12.90
2013,08,21,00,54,12.90
2013,08,21,00,55,12.90
2013,08,21,00,56,12.80
2013,08,21,00,57,12.80
2013,08,21,00,58,12.80
2013,08,21,00,59,12.80
2013,08,21,01,00,12.70
2013,08,21,01,01,12.70
2013,08,21,01,02,12.70
2013,08,21,01,03,12.70
2013,08,21,01,04,12.70
2013,08,21,01,05,12.60
2013,08,21,01,06,12.60
2013,08,21,01,07,12.60
2013,08,21,01,08,12.50
2013,08,21,01,09,12.40
2013,08,21,01,10,12.40
2013,08,21,01,11,12.40
2013,08,21,01,12,12.40
2013,08,21,01,13,12.30
2013,08,21,01,14,12.30
2013,08,21,01,15,12.30
2013,08,21,01,16,12.20
2013,08,21,01,17,12.20
2013,08,21,01,18,12.20
2013,08,21,01,19,12.20
2013,08,21,01,20,12.20
2013,08,21,01,21,12.20
2013,08,21,01,22,12.20
2013,08,21,01,23,12.10
2013,08,21,01,24,12.10
2013,08,21,01,25,12.10
2013,08,21,01,26,12.10
2013,08,21,01,27,12.10
2013,08,21,01,28,12.00
2013,08,21,01,29,12.00
2013,08,21,01,30,12.00
2013,08,21,01,31,12.00
2013,08,21,01,32,11.90
2013,08,21,01,33,11.90
2013,08,21,01,34,11.90
2013,08,21,01,35,11.90
2013,08,21,01,36,11.80
2013,08,21,01,37,11.80
2013,08,21,01,38,11.80
2013,08,21,01,39,11.80
2013,08,21,01,40,11.80
2013,08,21,01,41,11.80
2013,08,21,01,42,11.70
2013,08,21,01,43,11.70
2013,08,21,01,44,11.70
2013,08,21,01,45,11.70
2013,08,21,01,46,11.70
2013,08,21,01,47,11.70
2013,08,21,01,48,11.70
2013,08,21,01,49,11.70
2013,08,21,01,50,11.70
2013,08,21,01,51,11.70
2013,08,21,01,52,11.70
2013,08,21,01,53,11.70
2013,08,21,01,54,11.70
2013,08,21,01,55,11.70
2013,08,21,01,56,11.70
2013,08,21,01,57,11.70
2013,08,21,01,58,11.70
2013,08,21,01,59,11.70
2013,08,21,02,00,11.70
2013,08,21,02,01,11.70
2013,08,21,02,02,11.70
2013,08,21,02,03,11.70
2013,08,21,02,04,11.70
2013,08,21,02,05,11.70
2013,08,21,02,06,11.70
2013,08,21,02,07,11.70
2013,08,21,02,08,11.70
2013,08,21,02,09,11.70
2013,08,21,02,10,11.70
2013,08,21,02,11,11.60
2013,08,21,02,12,11.60
2013,08,21,02,13,11.60
2013,08,21,02,14,11.50
2013,08,21,02,15,11.50
2013,08,21,02,16,11.40
2013,08,21,02,17,11.40
2013,08,21,02,18,11.40
2013,08,21,02,19,11.30
2013,08,21,02,20,11.30
2013,08,21,02,21,11.30
2013,08,21,02,22,11.30
2013,08,21,02,23,11.20
2013,08,21,02,24,11.20
2013,08,21,02,25,11.30
2013,08,21,02,26,11.30
2013,08,21,02,27,11.20
2013,08,21,02,28,11.20
2013,08,21,02,29,11.20
2013,08,21,02,30,11.20
2013,08,21,02,31,11.20
2013,08,21,02,32,11.20
2013,08,21,02,33,11.20
2013,08,21,02,34,11.20
2013,08,21,02,35,11.20
2013,08,21,02,36,11.10
2013,08,21,02,37,11.10
2013,08,21,02,38,11.10
2013,08,21,02,39,11.10
2013,08,21,02,40,11.10
2013,08,21,02,41,11.10
2013,08,21,02,42,11.10
2013,08,21,02,43,11.10
2013,08,21,02,44,11.10
2013,08,21,02,45,11.10
2013,08,21,02,46,11.00
2013,08,21,02,47,11.00
2013,08,21,02,48,11.10
2013,08,21,02,49,11.10
2013,08,21,02,50,11.10
2013,08,21,02,51,11.10
2013,08,21,02,52,11.10
2013,08,21,02,53,11.10
2013,08,21,02,54,11.10
2013,08,21,02,55,11.10
2013,08,21,02,56,11.10
2013,08,21,02,57,11.10
2013,08,21,02,58,11.10
2013,08,21,02,59,11.00
2013,08,21,03,00,11.00
2013,08,21,03,01,11.00
2013,08,21,03,02,11.00
2013,08,21,03,03,11.10
2013,08,21,03,04,11.10
2013,08,21,03,05,11.10
2013,08,21,03,06,11.10
2013,08,21,03,07,11.10
2013,08,21,03,08,11.10
2013,08,21,03,09,11.10
2013,08,21,03,10,11.10
2013,08,21,03,11,11.10
2013,08,21,03,12,11.10
2013,08,21,03,13,11.10
2013,08,21,03,14,11.00
2013,08,21,03,15,11.00
2013,08,21,03,16,11.00
2013,08,21,03,17,11.00
2013,08,21,03,18,10.90
2013,08,21,03,19,10.90
2013,08,21,03,20,10.90
2013,08,21,03,21,10.80
2013,08,21,03,22,10.80
2013,08,21,03,23,10.80
2013,08,21,03,24,10.80
2013,08,21,03,25,10.70
2013,08,21,03,26,10.70
2013,08,21,03,27,10.70
2013,08,21,03,28,10.70
2013,08,21,03,29,10.70
2013,08,21,03,30,10.60
2013,08,21,03,31,10.60
2013,08,21,03,32,10.60
2013,08,21,03,33,10.60
2013,08,21,03,34,10.60
2013,08,21,03,35,10.70
2013,08,21,03,36,10.70
2013,08,21,03,37,10.70
2013,08,21,03,38,10.60
2013,08,21,03,39,10.60
2013,08,21,03,40,10.60
2013,08,21,03,41,10.60
2013,08,21,03,42,10.60
2013,08,21,03,43,10.50
2013,08,21,03,44,10.50
2013,08,21,03,45,10.50
2013,08,21,03,46,10.50
2013,08,21,03,47,10.50
2013,08,21,03,48,10.40
2013,08,21,03,49,10.40
2013,08,21,03,50,10.40
2013,08,21,03,51,10.40
2013,08,21,03,52,10.40
2013,08,21,03,53,10.30
2013,08,21,03,54,10.30
2013,08,21,03,55,10.30
2013,08,21,03,56,10.30
2013,08,21,03,57,10.30
2013,08,21,03,58,10.30
2013,08,21,03,59,10.30
2013,08,21,04,00,10.20
2013,08,21,04,01,10.20
2013,08,21,04,02,10.20
2013,08,21,04,03,10.20
2013,08,21,04,04,10.20
2013,08,21,04,05,10.20
2013,08,21,04,06,10.20
2013,08,21,04,07,10.20
2013,08,21,04,08,10.20
2013,08,21,04,09,10.10
2013,08,21,04,10,10.20
2013,08,21,04,11,10.10
2013,08,21,04,12,10.10
2013,08,21,04,13,10.10
2013,08,21,04,14,10.10
2013,08,21,04,15,10.10
2013,08,21,04,16,10.10
2013,08,21,04,17,10.00
2013,08,21,04,18,10.00
2013,08,21,04,19,10.00
2013,08,21,04,20,10.00
2013,08,21,04,21,10.00
2013,08,21,04,22,9.90
2013,08,21,04,23,9.90
2013,08,21,04,24,9.90
2013,08,21,04,25,10.00
2013,08,21,04,26,10.00
2013,08,21,04,27,10.00
2013,08,21,04,28,9.90
2013,08,21,04,29,9.90
2013,08,21,04,30,10.00
2013,08,21,04,31,9.90
2013,08,21,04,32,9.90
2013,08,21,04,33,9.90
2013,08,21,04,34,9.90
2013,08,21,04,35,9.90
2013,08,21,04,36,9.90
2013,08,21,04,37,9.90
2013,08,21,04,38,9.90
2013,08,21,04,39,9.90
2013,08,21,04,40,9.90
2013,08,21,04,41,9.90
2013,08,21,04,42,9.90
2013,08,21,04,43,9.90
2013,08,21,04,44,9.90
2013,08,21,04,45,9.90
2013,08,21,04,46,9.90
2013,08,21,04,47,9.90
2013,08,21,04,48,9.90
2013,08,21,04,49,9.90
2013,08,21,04,50,9.90
2013,08,21,04,51,9.90
2013,08,21,04,52,9.90
2013,08,21,04,53,9.90
2013,08,21,04,54,9.90
2013,08,21,04,55,9.90
2013,08,21,04,56,9.90
2013,08,21,04,57,9.90
2013,08,21,04,58,9.80
2013,08,21,04,59,9.80
2013,08,21,05,00,9.80
2013,08,21,05,01,9.80
2013,08,21,05,02,9.80
2013,08,21,05,03,9.80
2013,08,21,05,04,9.80
2013,08,21,05,05,9.80
2013,08,21,05,06,9.80
2013,08,21,05,07,9.80
2013,08,21,05,08,9.80
2013,08,21,05,09,9.80
2013,08,21,05,10,9.80
2013,08,21,05,11,9.80
2013,08,21,05,12,9.80
2013,08,21,05,13,9.80
2013,08,21,05,14,9.80
2013,08,21,05,15,9.80
2013,08,21,05,16,9.80
2013,08,21,05,17,9.80
2013,08,21,05,18,9.80
2013,08,21,05,19,9.80
2013,08,21,05,20,9.80
2013,08,21,05,21,9.80
2013,08,21,05,22,9.80
2013,08,21,05,23,9.80
2013,08,21,05,24,9.80
2013,08,21,05,25,9.80
2013,08,21,05,26,9.80
2013,08,21,05,27,9.80
2013,08,21,05,28,9.80
2013,08,21,05,29,9.70
2013,08,21,05,30,9.70
2013,08,21,05,31,9.70
2013,08,21,05,32,9.70
2013,08,21,05,33,9.70
2013,08,21,05,34,9.70
2013,08,21,05,35,9.70
2013,08,21,05,36,9.60
2013,08,21,05,37,9.60
2013,08,21,05,38,9.60
2013,08,21,05,39,9.60
2013,08,21,05,40,9.60
2013,08,21,05,41,9.60
2013,08,21,05,42,9.60
2013,08,21,05,43,9.60
2013,08,21,05,44,9.60
2013,08,21,05,45,9.50
2013,08,21,05,46,9.50
2013,08,21,05,47,9.50
2013,08,21,05,48,9.50
2013,08,21,05,49,9.50
2013,08,21,05,50,9.50
2013,08,21,05,51,9.40
2013,08,21,05,52,9.40
2013,08,21,05,53,9.40
2013,08,21,05,54,9.40
2013,08,21,05,55,9.40
2013,08,21,05,56,9.40
2013,08,21,05,57,9.30
2013,08,21,05,58,9.40
2013,08,21,05,59,9.40
2013,08,21,06,00,9.40
2013,08,21,06,01,9.40
2013,08,21,06,02,9.30
2013,08,21,06,03,9.30
2013,08,21,06,04,9.30
2013,08,21,06,05,9.30
2013,08,21,06,06,9.30
2013,08,21,06,07,9.30
2013,08,21,06,08,9.40
2013,08,21,06,09,9.40
2013,08,21,06,10,9.30
2013,08,21,06,11,9.30
2013,08,21,06,12,9.30
2013,08,21,06,13,9.30
2013,08,21,06,14,9.30
2013,08,21,06,15,9.30
2013,08,21,06,16,9.30
2013,08,21,06,17,9.30
2013,08,21,06,18,9.30
2013,08,21,06,19,9.30
2013,08,21,06,20,9.30
2013,08,21,06,21,9.30
2013,08,21,06,22,9.30
2013,08,21,06,23,9.30
2013,08,21,06,24,9.30
2013,08,21,06,25,9.30
2013,08,21,06,26,9.20
2013,08,21,06,27,9.30
2013,08,21,06,28,9.30
2013,08,21,06,29,9.30
2013,08,21,06,30,9.30
2013,08,21,06,31,9.30
2013,08,21,06,32,9.30
2013,08,21,06,33,9.30
2013,08,21,06,34,9.20
2013,08,21,06,35,9.30
2013,08,21,06,36,9.30
2013,08,21,06,37,9.30
2013,08,21,06,38,9.30
2013,08,21,06,39,9.30
2013,08,21,06,40,9.30
2013,08,21,06,41,9.30
2013,08,21,06,42,9.30
2013,08,21,06,43,9.30
2013,08,21,06,44,9.30
2013,08,21,06,45,9.30
2013,08,21,06,46,9.30
2013,08,21,06,47,9.30
2013,08,21,06,48,9.30
2013,08,21,06,49,9.30
2013,08,21,06,50,9.30
2013,08,21,06,51,9.30
2013,08,21,06,52,9.30
2013,08,21,06,53,9.30
2013,08,21,06,54,9.40
2013,08,21,06,55,9.40
2013,08,21,06,56,9.40
2013,08,21,06,57,9.50
2013,08,21,06,58,9.50
2013,08,21,06,59,9.50
2013,08,21,07,00,9.50
2013,08,21,07,01,9.60
2013,08,21,07,02,9.60
2013,08,21,07,03,9.60
2013,08,21,07,04,9.60
2013,08,21,07,05,9.60
2013,08,21,07,06,9.60
2013,08,21,07,07,9.60
2013,08,21,07,08,9.60
2013,08,21,07,09,9.60
2013,08,21,07,10,9.60
2013,08,21,07,11,9.60
2013,08,21,07,12,9.60
2013,08,21,07,13,9.60
2013,08,21,07,14,9.60
2013,08,21,07,15,9.70
2013,08,21,07,16,9.70
2013,08,21,07,17,9.70
2013,08,21,07,18,9.80
2013,08,21,07,19,9.80
2013,08,21,07,20,9.90
2013,08,21,07,21,9.90
2013,08,21,07,22,9.90
2013,08,21,07,23,10.00
2013,08,21,07,24,10.00
2013,08,21,07,25,10.00
2013,08,21,07,26,10.10
2013,08,21,07,27,10.10
2013,08,21,07,28,10.10
2013,08,21,07,29,10.10
2013,08,21,07,30,10.20
2013,08,21,07,31,10.20
2013,08,21,07,32,10.20
2013,08,21,07,33,10.20
2013,08,21,07,34,10.30
2013,08,21,07,35,10.30
2013,08,21,07,36,10.30
2013,08,21,07,37,10.40
2013,08,21,07,38,10.40
2013,08,21,07,39,10.50
2013,08,21,07,40,10.60
2013,08,21,07,41,10.70
2013,08,21,07,42,10.70
2013,08,21,07,43,10.80
2013,08,21,07,44,10.80
2013,08,21,07,45,10.80
2013,08,21,07,46,10.90
2013,08,21,07,47,10.90
2013,08,21,07,48,11.00
2013,08,21,07,49,11.00
2013,08,21,07,50,11.00
2013,08,21,07,51,11.10
2013,08,21,07,52,11.10
2013,08,21,07,53,11.10
2013,08,21,07,54,11.20
2013,08,21,07,55,11.20
2013,08,21,07,56,11.20
2013,08,21,07,57,11.30
2013,08,21,07,58,11.30
2013,08,21,07,59,11.40
2013,08,21,08,00,11.40
2013,08,21,08,01,11.50
2013,08,21,08,02,11.50
2013,08,21,08,03,11.60
2013,08,21,08,04,11.70
2013,08,21,08,05,11.70
2013,08,21,08,06,11.80
2013,08,21,08,07,11.80
2013,08,21,08,08,11.90
2013,08,21,08,09,12.00
2013,08,21,08,10,12.10
2013,08,21,08,11,12.20
2013,08,21,08,12,12.30
2013,08,21,08,13,12.40
2013,08,21,08,14,12.50
2013,08,21,08,15,12.60
2013,08,21,08,16,12.70
2013,08,21,08,17,12.80
2013,08,21,08,18,12.90
2013,08,21,08,19,13.00
2013,08,21,08,20,13.10
2013,08,21,08,21,13.20
2013,08,21,08,22,13.30
2013,08,21,08,23,13.40
2013,08,21,08,24,13.50
2013,08,21,08,25,13.70
2013,08,21,08,26,13.80
2013,08,21,08,27,13.90
2013,08,21,08,28,14.10
2013,08,21,08,29,14.30
2013,08,21,08,30,14.40
2013,08,21,08,31,14.60
2013,08,21,08,32,14.70
2013,08,21,08,33,14.80
2013,08,21,08,34,15.00
2013,08,21,08,35,15.10
2013,08,21,08,36,15.10
2013,08,21,08,37,15.20
2013,08,21,08,38,15.30
2013,08,21,08,39,15.30
2013,08,21,08,40,15.40
2013,08,21,08,41,15.50
2013,08,21,08,42,15.60
2013,08,21,08,43,15.70
2013,08,21,08,44,15.80
2013,08,21,08,45,15.80
2013,08,21,08,46,15.90
2013,08,21,08,47,16.00
2013,08,21,08,48,16.00
2013,08,21,08,49,16.00
2013,08,21,08,50,16.10
2013,08,21,08,51,16.20
2013,08,21,08,52,16.20
2013,08,21,08,53,16.30
2013,08,21,08,54,16.40
2013,08,21,08,55,16.50
2013,08,21,08,56,16.50
2013,08,21,08,57,16.60
2013,08,21,08,58,16.60
2013,08,21,08,59,16.60
2013,08,21,09,00,16.60
2013,08,21,09,01,16.60
2013,08,21,09,02,16.60
2013,08,21,09,03,16.60
2013,08,21,09,04,16.60
2013,08,21,09,05,16.70
2013,08,21,09,06,16.70
2013,08,21,09,07,16.80
2013,08,21,09,08,16.90
2013,08,21,09,09,16.90
2013,08,21,09,10,17.00
2013,08,21,09,11,17.10
2013,08,21,09,12,17.20
2013,08,21,09,13,17.30
2013,08,21,09,14,17.40
2013,08,21,09,15,17.50
2013,08,21,09,16,17.60
2013,08,21,09,17,17.70
2013,08,21,09,18,17.80
2013,08,21,09,19,17.90
2013,08,21,09,20,17.90
2013,08,21,09,21,18.00
2013,08,21,09,22,18.20
2013,08,21,09,23,18.20
2013,08,21,09,24,18.30
2013,08,21,09,25,18.40
2013,08,21,09,26,18.60
2013,08,21,09,27,18.70
2013,08,21,09,28,18.70
2013,08,21,09,29,18.80
2013,08,21,09,30,18.90
2013,08,21,09,31,18.90
2013,08,21,09,32,19.00
2013,08,21,09,33,19.00
2013,08,21,09,34,19.10
2013,08,21,09,35,19.10
2013,08,21,09,36,19.20
2013,08,21,09,37,19.30
2013,08,21,09,38,19.30
2013,08,21,09,39,19.30
2013,08,21,09,40,19.30
2013,08,21,09,41,19.40
2013,08,21,09,42,19.40
2013,08,21,09,43,19.40
2013,08,21,09,44,19.50
2013,08,21,09,45,19.50
2013,08,21,09,46,19.60
2013,08,21,09,47,19.70
2013,08,21,09,48,19.80
2013,08,21,09,49,19.80
2013,08,21,09,50,19.90
2013,08,21,09,51,20.00
2013,08,21,09,52,20.10
2013,08,21,09,53,20.10
2013,08,21,09,54,20.10
2013,08,21,09,55,20.20
2013,08,21,09,56,20.20
2013,08,21,09,57,20.20
2013,08,21,09,58,20.30
2013,08,21,09,59,20.30
2013,08,21,10,00,20.40
2013,08,21,10,01,20.50
2013,08,21,10,02,20.60
2013,08,21,10,03,20.70
2013,08,21,10,04,20.70
2013,08,21,10,05,20.80
2013,08,21,10,06,20.80
2013,08,21,10,07,20.90
2013,08,21,10,08,20.90
2013,08,21,10,09,20.90
2013,08,21,10,10,21.00
2013,08,21,10,11,21.00
2013,08,21,10,12,21.10
2013,08,21,10,13,21.20
2013,08,21,10,14,21.30
2013,08,21,10,15,21.30
2013,08,21,10,16,21.40
2013,08,21,10,17,21.50
2013,08,21,10,18,21.60
2013,08,21,10,19,21.60
2013,08,21,10,20,21.60
2013,08,21,10,21,21.70
2013,08,21,10,22,21.70
2013,08,21,10,23,21.60
2013,08,21,10,24,21.60
2013,08,21,10,25,21.60
2013,08,21,10,26,21.60
2013,08,21,10,27,21.60
2013,08,21,10,28,21.60
2013,08,21,10,29,21.70
2013,08,21,10,30,21.80
2013,08,21,10,31,21.80
2013,08,21,10,32,21.90
2013,08,21,10,33,21.90
2013,08,21,10,34,21.90
2013,08,21,10,35,22.00
2013,08,21,10,36,22.00
2013,08,21,10,37,22.00
2013,08,21,10,38,22.10
2013,08,21,10,39,22.10
2013,08,21,10,40,22.20
2013,08,21,10,41,22.30
2013,08,21,10,42,22.40
2013,08,21,10,43,22.50
2013,08,21,10,44,22.50
2013,08,21,10,45,22.50
2013,08,21,10,46,22.50
2013,08,21,10,47,22.60
2013,08,21,10,48,22.70
2013,08,21,10,49,22.80
2013,08,21,10,50,22.90
2013,08,21,10,51,23.00
2013,08,21,10,52,23.10
2013,08,21,10,53,23.10
2013,08,21,10,54,23.10
2013,08,21,10,55,23.00
2013,08,21,10,56,23.00
2013,08,21,10,57,22.90
2013,08,21,10,58,22.80
2013,08,21,10,59,22.80
2013,08,21,11,00,22.70
2013,08,21,11,01,22.70
2013,08,21,11,02,22.70
2013,08,21,11,03,22.70
2013,08,21,11,04,22.80
2013,08,21,11,05,22.90
2013,08,21,11,06,22.90
2013,08,21,11,07,23.00
2013,08,21,11,08,23.10
2013,08,21,11,09,23.00
2013,08,21,11,10,23.00
2013,08,21,11,11,22.90
2013,08,21,11,12,22.90
2013,08,21,11,13,22.90
2013,08,21,11,14,23.00
2013,08,21,11,15,23.10
2013,08,21,11,16,23.00
2013,08,21,11,17,22.90
2013,08,21,11,18,22.90
2013,08,21,11,19,22.90
2013,08,21,11,20,22.80
2013,08,21,11,21,22.80
2013,08,21,11,22,22.80
2013,08,21,11,23,22.80
2013,08,21,11,24,22.70
2013,08,21,11,25,22.70
2013,08,21,11,26,22.70
2013,08,21,11,27,22.70
2013,08,21,11,28,22.70
2013,08,21,11,29,22.70
2013,08,21,11,30,22.70
2013,08,21,11,31,22.60
2013,08,21,11,32,22.50
2013,08,21,11,33,22.40
2013,08,21,11,34,22.50
2013,08,21,11,35,22.60
2013,08,21,11,36,22.60
2013,08,21,11,37,22.60
2013,08,21,11,38,22.60
2013,08,21,11,39,22.70
2013,08,21,11,40,22.90
2013,08,21,11,41,23.00
2013,08,21,11,42,23.10
2013,08,21,11,43,23.10
2013,08,21,11,44,23.10
2013,08,21,11,45,23.10
2013,08,21,11,46,23.10
2013,08,21,11,47,23.20
2013,08,21,11,48,23.20
2013,08,21,11,49,23.20
2013,08,21,11,50,23.20
2013,08,21,11,51,23.10
2013,08,21,11,52,23.10
2013,08,21,11,53,23.10
2013,08,21,11,54,23.10
2013,08,21,11,55,23.20
2013,08,21,11,56,23.20
2013,08,21,11,57,23.30
2013,08,21,11,58,23.30
2013,08,21,11,59,23.40
2013,08,21,12,00,23.40
2013,08,21,12,01,23.40
2013,08,21,12,02,23.30
2013,08,21,12,03,23.30
2013,08,21,12,04,23.20
2013,08,21,12,05,23.20
2013,08,21,12,06,23.20
2013,08,21,12,07,23.20
2013,08,21,12,08,23.20
2013,08,21,12,09,23.20
2013,08,21,12,10,23.20
2013,08,21,12,11,23.30
2013,08,21,12,12,23.30
2013,08,21,12,13,23.40
2013,08,21,12,14,23.50
2013,08,21,12,15,23.60
2013,08,21,12,16,23.60
2013,08,21,12,17,23.70
2013,08,21,12,18,23.60
2013,08,21,12,19,23.50
2013,08,21,12,20,23.50
2013,08,21,12,21,23.40
2013,08,21,12,22,23.30
2013,08,21,12,23,23.30
2013,08,21,12,24,23.30
2013,08,21,12,25,23.20
2013,08,21,12,26,23.20
2013,08,21,12,27,23.20
2013,08,21,12,28,23.30
2013,08,21,12,29,23.50
2013,08,21,12,30,23.60
2013,08,21,12,31,23.70
2013,08,21,12,32,24.00
2013,08,21,12,33,24.10
2013,08,21,12,34,24.20
2013,08,21,12,35,24.10
2013,08,21,12,36,24.00
2013,08,21,12,37,23.90
2013,08,21,12,38,23.80
2013,08,21,12,39,23.80
2013,08,21,12,40,23.80
2013,08,21,12,41,23.80
2013,08,21,12,42,23.80
2013,08,21,12,43,23.80
2013,08,21,12,44,23.90
2013,08,21,12,45,23.90
2013,08,21,12,46,24.00
2013,08,21,12,47,23.90
2013,08,21,12,48,23.90
2013,08,21,12,49,24.00
2013,08,21,12,50,24.00
2013,08,21,12,51,24.10
2013,08,21,12,52,24.20
2013,08,21,12,53,24.30
2013,08,21,12,54,24.30
2013,08,21,12,55,24.20
2013,08,21,12,56,24.10
2013,08,21,12,57,24.10
2013,08,21,12,58,24.10
2013,08,21,12,59,24.20
2013,08,21,13,00,24.20
2013,08,21,13,01,24.30
2013,08,21,13,02,24.30
2013,08,21,13,03,24.30
2013,08,21,13,04,24.30
2013,08,21,13,05,24.30
2013,08,21,13,06,24.30
2013,08,21,13,07,24.20
2013,08,21,13,08,24.20
2013,08,21,13,09,24.20
2013,08,21,13,10,24.20
2013,08,21,13,11,24.20
2013,08,21,13,12,24.30
2013,08,21,13,13,24.40
2013,08,21,13,14,24.50
2013,08,21,13,15,24.50
2013,08,21,13,16,24.60
2013,08,21,13,17,24.50
2013,08,21,13,18,24.50
2013,08,21,13,19,24.50
2013,08,21,13,20,24.40
2013,08,21,13,21,24.40
2013,08,21,13,22,24.30
2013,08,21,13,23,24.20
2013,08,21,13,24,24.20
2013,08,21,13,25,24.10
2013,08,21,13,26,24.20
2013,08,21,13,27,24.20
2013,08,21,13,28,24.20
2013,08,21,13,29,24.30
2013,08,21,13,30,24.40
2013,08,21,13,31,24.50
2013,08,21,13,32,24.60
2013,08,21,13,33,24.70
2013,08,21,13,34,24.70
2013,08,21,13,35,24.80
2013,08,21,13,36,24.80
2013,08,21,13,37,24.80
2013,08,21,13,38,24.70
2013,08,21,13,39,24.70
2013,08,21,13,40,24.60
2013,08,21,13,41,24.60
2013,08,21,13,42,24.50
2013,08,21,13,43,24.50
2013,08,21,13,44,24.60
2013,08,21,13,45,24.60
2013,08,21,13,46,24.70
2013,08,21,13,47,24.70
2013,08,21,13,48,24.60
2013,08,21,13,49,24.50
2013,08,21,13,50,24.50
2013,08,21,13,51,24.40
2013,08,21,13,52,24.30
2013,08,21,13,53,24.20
2013,08,21,13,54,24.20
2013,08,21,13,55,24.20
2013,08,21,13,56,24.10
2013,08,21,13,57,24.10
2013,08,21,13,58,24.20
2013,08,21,13,59,24.30
2013,08,21,14,00,24.30
2013,08,21,14,01,24.20
2013,08,21,14,02,24.30
2013,08,21,14,03,24.30
2013,08,21,14,04,24.40
2013,08,21,14,05,24.40
2013,08,21,14,06,24.50
2013,08,21,14,07,24.50
2013,08,21,14,08,24.50
2013,08,21,14,09,24.40
2013,08,21,14,10,24.40
2013,08,21,14,11,24.50
2013,08,21,14,12,24.60
2013,08,21,14,13,24.60
2013,08,21,14,14,24.70
2013,08,21,14,15,24.80
2013,08,21,14,16,24.90
2013,08,21,14,17,24.90
2013,08,21,14,18,24.90
2013,08,21,14,19,24.80
2013,08,21,14,20,24.90
2013,08,21,14,21,24.90
2013,08,21,14,22,24.90
2013,08,21,14,23,25.00
2013,08,21,14,24,25.00
2013,08,21,14,25,25.10
2013,08,21,14,26,25.10
2013,08,21,14,27,25.20
2013,08,21,14,28,25.20
2013,08,21,14,29,25.40
2013,08,21,14,30,25.40
2013,08,21,14,31,25.30
2013,08,21,14,32,25.30
2013,08,21,14,33,25.30
2013,08,21,14,34,25.30
2013,08,21,14,35,25.40
2013,08,21,14,36,25.50
2013,08,21,14,37,25.70
2013,08,21,14,38,25.80
2013,08,21,14,39,25.90
2013,08,21,14,40,25.90
2013,08,21,14,41,25.90
2013,08,21,14,42,25.80
2013,08,21,14,43,25.90
2013,08,21,14,44,25.80
2013,08,21,14,45,25.70
2013,08,21,14,46,25.60
2013,08,21,14,47,25.60
2013,08,21,14,48,25.70
2013,08,21,14,49,25.80
2013,08,21,14,50,25.70
2013,08,21,14,51,25.70
2013,08,21,14,52,25.70
2013,08,21,14,53,25.60
2013,08,21,14,54,25.60
2013,08,21,14,55,25.40
2013,08,21,14,56,25.30
2013,08,21,14,57,25.20
2013,08,21,14,58,25.10
2013,08,21,14,59,25.10
2013,08,21,15,00,25.10
2013,08,21,15,01,25.10
2013,08,21,15,02,25.10
2013,08,21,15,03,25.20
2013,08,21,15,04,25.30
2013,08,21,15,05,25.40
2013,08,21,15,06,25.50
2013,08,21,15,07,25.60
2013,08,21,15,08,25.60
2013,08,21,15,09,25.60
2013,08,21,15,10,25.70
2013,08,21,15,11,25.60
2013,08,21,15,12,25.50
2013,08,21,15,13,25.60
2013,08,21,15,14,25.70
2013,08,21,15,15,25.80
2013,08,21,15,16,25.80
2013,08,21,15,17,25.80
2013,08,21,15,18,25.90
2013,08,21,15,19,26.00
2013,08,21,15,20,26.00
2013,08,21,15,21,26.00
2013,08,21,15,22,25.90
2013,08,21,15,23,25.80
2013,08,21,15,24,25.80
2013,08,21,15,25,25.70
2013,08,21,15,26,25.70
2013,08,21,15,27,25.70
2013,08,21,15,28,25.80
2013,08,21,15,29,25.80
2013,08,21,15,30,25.90
2013,08,21,15,31,26.10
2013,08,21,15,32,26.20
2013,08,21,15,33,26.30
2013,08,21,15,34,26.40
2013,08,21,15,35,26.40
2013,08,21,15,36,26.50
2013,08,21,15,37,26.60
2013,08,21,15,38,26.60
2013,08,21,15,39,26.50
2013,08,21,15,40,26.40
2013,08,21,15,41,26.30
2013,08,21,15,42,26.20
2013,08,21,15,43,26.00
2013,08,21,15,44,25.90
2013,08,21,15,45,25.90
2013,08,21,15,46,25.90
2013,08,21,15,47,25.90
2013,08,21,15,48,25.90
2013,08,21,15,49,25.80
2013,08,21,15,50,25.70
2013,08,21,15,51,25.60
2013,08,21,15,52,25.60
2013,08,21,15,53,25.60
2013,08,21,15,54,25.70
2013,08,21,15,55,25.70
2013,08,21,15,56,25.70
2013,08,21,15,57,25.70
2013,08,21,15,58,25.60
2013,08,21,15,59,25.50
2013,08,21,16,00,25.40
2013,08,21,16,01,25.40
2013,08,21,16,02,25.30
2013,08,21,16,03,25.30
2013,08,21,16,04,25.20
2013,08,21,16,05,25.10
2013,08,21,16,06,25.00
2013,08,21,16,07,25.00
2013,08,21,16,08,25.00
2013,08,21,16,09,25.00
2013,08,21,16,10,25.00
2013,08,21,16,11,25.10
2013,08,21,16,12,25.10
2013,08,21,16,13,25.20
2013,08,21,16,14,25.20
2013,08,21,16,15,25.10
2013,08,21,16,16,25.00
2013,08,21,16,17,24.80
2013,08,21,16,18,24.70
2013,08,21,16,19,24.70
2013,08,21,16,20,24.60
2013,08,21,16,21,24.50
2013,08,21,16,22,24.50
2013,08,21,16,23,24.50
2013,08,21,16,24,24.50
2013,08,21,16,25,24.50
2013,08,21,16,26,24.40
2013,08,21,16,27,24.40
2013,08,21,16,28,24.40
2013,08,21,16,29,24.40
2013,08,21,16,30,24.30
2013,08,21,16,31,24.30
2013,08,21,16,32,24.40
2013,08,21,16,33,24.50
2013,08,21,16,34,24.50
2013,08,21,16,35,24.50
2013,08,21,16,36,24.50
2013,08,21,16,37,24.40
2013,08,21,16,38,24.40
2013,08,21,16,39,24.30
2013,08,21,16,40,24.30
2013,08,21,16,41,24.30
2013,08,21,16,42,24.30
2013,08,21,16,43,24.20
2013,08,21,16,44,24.20
2013,08,21,16,45,24.20
2013,08,21,16,46,24.20
2013,08,21,16,47,24.20
2013,08,21,16,48,24.20
2013,08,21,16,49,24.10
2013,08,21,16,50,24.00
2013,08,21,16,51,23.90
2013,08,21,16,52,23.80
2013,08,21,16,53,23.70
2013,08,21,16,54,23.60
2013,08,21,16,55,23.60
2013,08,21,16,56,23.60
2013,08,21,16,57,23.60
2013,08,21,16,58,23.60
2013,08,21,16,59,23.60
2013,08,21,17,00,23.60
2013,08,21,17,01,23.60
2013,08,21,17,02,23.60
2013,08,21,17,03,23.60
2013,08,21,17,04,23.60
2013,08,21,17,05,23.60
2013,08,21,17,06,23.60
2013,08,21,17,07,23.60
2013,08,21,17,08,23.50
2013,08,21,17,09,23.50
2013,08,21,17,10,23.60
2013,08,21,17,11,23.60
2013,08,21,17,12,23.60
2013,08,21,17,13,23.60
2013,08,21,17,14,23.60
2013,08,21,17,15,23.60
2013,08,21,17,16,23.60
2013,08,21,17,17,23.60
2013,08,21,17,18,23.60
2013,08,21,17,19,23.70
2013,08,21,17,20,23.70
2013,08,21,17,21,23.80
2013,08,21,17,22,23.80
2013,08,21,17,23,23.80
2013,08,21,17,24,23.90
2013,08,21,17,25,23.90
2013,08,21,17,26,23.90
2013,08,21,17,27,23.90